Regional Weather Roundup
Issued by NWS

Home | Current Version | Previous Version | Text Only | Print | Product List | Glossary On
Versions: 1 2 3 4 5 6 7 8 9 10 11 12 13 14 15 16 17 18 19 20 21 22 23 24 25 26 27 28 29 30 31 32 33 34 35 36 37 38 39 40 41 42 43 44 45 46 47 48
000
ASUS42 KKEY 030010
RWRKEY

FLORIDA REGIONAL WEATHER ROUNDUP FOR THE FLORIDA KEYS
NATIONAL WEATHER SERVICE KEY WEST FLORIDA
800 PM EDT SUN AUG 02 2015

...SOUTH FLORIDA AND THE KEYS...

CITY           SKY/WX    TMP DP  RH WIND       PRES   REMARKS
FORT MYERS     MOCLDY    83  70  64 NW6       29.96R
SW REGIONAL AP MOCLDY    83  69  62 CALM      29.97S
NAPLES         MOCLDY    85  73  67 N6        29.97S HX  91
MIAMI          LGT RAIN  79  67  66 N3        29.98S
WEST KENDALL   CLOUDY    79  68  69 E5        29.97F
HOMESTEAD      CLOUDY    79  70  73 E1        29.96F
MARATHON       MOCLDY    85  74  69 N8        29.97R HX  92
BOCA CHICA NAS CLOUDY    87  72  60 NW7       29.97R HX  93
KEY WEST INTL  MOCLDY    88  74  63 N7        29.97S HX  96

...INTERNATIONAL WEATHER...

CITY           SKY/WX    TMP DP  RH WIND       PRES   REMARKS
NASSAU BAHAMAS NOT AVBL
CANCUN MEXICO  MOCLDY    84  77  79 E9        29.92S HX  94
COZUMEL MEXICO PTCLDY    82  75  78 E10       29.91F

ADJACENT COASTAL WATERS...

STATION/POSITION TIME  SKY/WX   TEMP    WIND        PRES    WAVE
                                AIR SEA DIR/SP/G            HT/PER
                 (UTC)          (F)     (DEG/KT/KT) (MB)    (FT/S)
PULASKI SHOAL LI 2300            86     330/  9/ 10 1014.6R
SAND KEY         2350            86     340/  7/  8 1014.6F
SOMBRERO KEY     0000            85     270/  3/  3 1015.8R
LONG KEY         2300            86 90  190/  2/  3 1015.5R
MOLASSES REEF    0000            85 87  220/  6/  6 1014.8F
FOWEY ROCKS      NOT AVBL

$$



USA.gov is the U.S. government's official web portal to all federal, state and local government web resources and services.